Dallas Redbird, TX

1:16 AM CDT on April 24, 2017 (GMT -0500)
Redbird

Weather History for KRBD - February, 2013

Change the Weather History Date:

Saturday, February 16, 2013

  Actual Average Record
Temperature  
Mean Temperature 42 °F -  
Max Temperature 55 °F 59 °F 84 °F (2006)
Min Temperature 30 °F 40 °F 14 °F (2007)
Degree Days  
Heating Degree Days 22    
Moisture  
Dew Point 24 °F    
Average Humidity 49    
Maximum Humidity 69    
Minimum Humidity 29    
Precipitation  
Precipitation 0.00 in - - ()
Sea Level Pressure  
Sea Level Pressure 30.31 in    
Wind  
Wind Speed 6 mph (West)    
Max Wind Speed 9 mph    
Max Gust Speed -    
Visibility 10 miles    
Events      
Averages and records for this station are not official NWS values.
T = Trace of Precipitation, MM = Missing Value Source: NWS Daily Summary

Daily Weather History Graph

Daily Weather History Graph

Search for Another Location

Airport or City:

Trip Planner

Search our weather history database for the weather conditions in past years. The results will help you decide how hot, cold, wet, or windy it might be!

Date:

Astronomy

Feb. 16, 2013 Rise Set
Actual Time 7:09 AM CST 6:14 PM CST
Civil Twilight 6:44 AM CST 6:39 PM CST
Nautical Twilight 6:15 AM CST 7:08 PM CST
Astronomical Twilight 5:46 AM CST 7:36 PM CST
Moon 10:47 AM CST (2/16) No Moon Set
Length of Visible Light 11h 55m
Length of Day
11h 05m
Waxing Crescent, 39% of the Moon is Illuminated
Feb 16
Waxing Crescent
Feb 17
First Quarter
Feb 25
Full
Mar 4
Last Quarter
Mar 11
New

Hourly Weather History & Observations

Time (CST) Temp. Windchill Dew Point Humidity Pressure Visibility Wind Dir Wind Speed Gust Speed Precip Events Conditions
12:53 AM 35.1 °F 29.3 °F 21.9 °F 59% 30.39 in 10.0 mi NW 6.9 mph - N/A   Clear
1:53 AM 35.1 °F 28.6 °F 23.0 °F 61% 30.39 in 10.0 mi West 8.1 mph - N/A   Clear
2:53 AM 33.1 °F 30.0 °F 21.0 °F 61% 30.37 in 10.0 mi West 3.5 mph - N/A   Clear
3:53 AM 32.0 °F 26.4 °F 21.9 °F 66% 30.38 in 10.0 mi NW 5.8 mph - N/A   Clear
4:53 AM 30.9 °F 25.2 °F 21.0 °F 67% 30.38 in 10.0 mi NW 5.8 mph - N/A   Clear
5:53 AM 30.9 °F 25.2 °F 21.0 °F 67% 30.39 in 10.0 mi WNW 5.8 mph - N/A   Clear
6:53 AM 30.9 °F 27.5 °F 21.9 °F 69% 30.39 in 10.0 mi West 3.5 mph - N/A   Clear
7:53 AM 34.0 °F 28.8 °F 21.9 °F 61% 30.41 in 10.0 mi West 5.8 mph - N/A   Clear
8:53 AM 39.9 °F 36.7 °F 23.0 °F 51% 30.41 in 10.0 mi North 4.6 mph - N/A   Clear
9:53 AM 45.0 °F 42.6 °F 24.1 °F 44% 30.41 in 10.0 mi Variable 4.6 mph - N/A   Clear
10:53 AM 46.9 °F - 24.1 °F 41% 30.41 in 10.0 mi Variable 5.8 mph - N/A   Clear
11:53 AM 48.0 °F - 26.1 °F 42% 30.39 in 10.0 mi North 9.2 mph - N/A   Clear
12:53 PM 51.1 °F - 26.1 °F 38% 30.36 in 10.0 mi Calm Calm - N/A   Clear
1:53 PM 53.1 °F - 24.1 °F 32% 30.30 in 10.0 mi WNW 4.6 mph - N/A   Clear
2:53 PM 55.0 °F - 24.1 °F 30% 30.27 in 10.0 mi NW 5.8 mph - N/A   Clear
3:53 PM 55.0 °F - 23.0 °F 29% 30.25 in 10.0 mi Variable 3.5 mph - N/A   Clear
4:53 PM 55.0 °F - 23.0 °F 29% 30.23 in 10.0 mi West 6.9 mph - N/A   Clear
5:53 PM 54.0 °F - 23.0 °F 30% 30.21 in 10.0 mi SSE 4.6 mph - N/A   Clear
6:53 PM 48.0 °F - 25.0 °F 41% 30.20 in 10.0 mi SSE 4.6 mph - N/A   Clear
7:53 PM 46.9 °F - 26.1 °F 44% 30.19 in 10.0 mi SE 3.5 mph - N/A   Clear
8:53 PM 45.0 °F 42.6 °F 26.1 °F 48% 30.20 in 10.0 mi South 4.6 mph - N/A   Clear
9:53 PM 45.0 °F 41.8 °F 26.1 °F 48% 30.20 in 10.0 mi South 5.8 mph - N/A   Clear
10:53 PM 44.1 °F 40.8 °F 28.0 °F 53% 30.18 in 10.0 mi SSE 5.8 mph - N/A   Clear
11:53 PM 41.0 °F 36.4 °F 28.0 °F 60% 30.18 in 10.0 mi SSE 6.9 mph - N/A   Clear